Location: Newark
(9.4667°S, 159.8167°E)
Time: 11:17:06
(UTC+00:00)

Courier 1B Rocket - Pass Details

Date: 20 November 2019
Orbit: 920 x 1202 km, 28.2° (Epoch: 09 December)

Event Time Altitude Azimuth Distance (km) Brightness Sun altitude
Rises 12:18:34 0° 306° (NW) 4,079 - -58.6°
Reaches altitude 10° 12:21:29 10° 309° (NW) 3,103 - -58.8°
Maximum altitude 12:29:09 67° 30° (NNE) 1,236 - -59.4°
Drops below altitude 10° 12:36:25 10° 111° (ESE) 2,949 - -59.9°
Sets 12:39:06 0° 113° (ESE) 3,866 - -60.1°
